DW9227 Weather Reports


Display with metric or nautical units.
time (UTC)temp
F
wind
direction
speed
MPH
gust
MPH
rain 1hr
in
rain 24hr
in
rain mn
in
humidity
%
barometer
mb
20200927081618 50 284 1.0 7.0 0.00 0.00 0.00 52 1006.3
20200927080021 49 279 2.0 8.0 0.00 0.00 0.00 52 1006.4
20200927074518 49 290 0.0 7.0 0.00 0.00 0.00 53 1006.3
20200927073027 48 292 2.0 5.0 0.00 0.00 0.00 51 1006.2
20200927071524 48 294 1.0 5.0 0.00 0.00 0.00 53 1006.0
20200927070159 48 296 1.0 5.0 0.00 0.00 0.00 52 1005.9
20200927064644 48 296 1.0 7.0 0.00 0.00 0.00 51 1005.8
20200927063131 48 297 2.0 9.0 0.00 0.00 0.00 52 1005.8
20200927061815 48 281 0.0 3.0 0.00 0.00 0.00 53 1005.7
20200927060155 48 281 0.0 3.0 0.00 0.00 0.00 53 1005.5
20200927054655 48 281 1.0 8.0 0.00 0.00 0.00 50 1005.2
20200927053319 48 274 3.0 9.0 0.00 0.00 0.00 49 1004.8
20200927051637 49 296 2.0 8.0 0.00 0.00 0.00 46 1004.6
20200927050115 49 315 1.0 7.0 0.00 0.00 0.00 44 1004.3
20200927044559 50 292 3.0 10.0 0.00 0.00 0.00 44 1004.2
20200927043042 51 290 2.0 8.0 0.00 0.00 0.00 42 1004.2
20200927041557 51 307 5.0 11.0 0.00 0.00 0.00 42 1004.1
20200927040127 50 309 3.0 8.0 0.00 0.00 0.00 43 1004.1
20200927034558 51 309 2.0 11.0 0.00 0.00 0.00 42 1004.1
20200927033100 51 297 1.0 6.0 0.00 0.00 0.00 43 1004.1
20200927031617 51 291 2.0 11.0 0.00 0.00 0.00 41 1004.2
20200927030053 52 305 2.0 10.0 0.00 0.00 0.00 41 1004.2
20200927024611 52 328 2.0 8.0 0.00 0.00 0.00 39 1004.3
20200927023030 52 295 2.0 7.0 0.00 0.00 0.00 41 1004.4
20200927021531 52 296 1.0 10.0 0.00 0.00 0.00 40 1004.6
20200927020026 52 315 2.0 12.0 0.00 0.00 0.00 40 1004.6
20200927014522 52 298 2.0 8.0 0.00 0.00 0.00 40 1004.8
20200927013025 52 341 5.0 12.0 0.00 0.00 0.00 39 1004.8
20200927011620 53 294 2.0 7.0 0.00 0.00 0.00 40 1005.1
20200927010037 53 321 6.0 11.0 0.00 0.00 0.00 39 1005.2
20200927004538 53 338 3.0 11.0 0.00 0.00 0.00 39 1005.2
20200927003023 53 306 4.0 11.0 0.00 0.00 0.00 39 1005.1
20200927001540 53 309 3.0 9.0 0.00 0.00 0.00 39 1004.8
20200926234514 54 319 4.0 9.0 0.00 0.00 0.00 38 1004.7
20200926233320 54 318 6.0 13.0 0.00 0.00 0.00 37 1004.5
20200926231712 54 314 4.0 12.0 0.00 0.00 0.00 37 1004.4
20200926230142 55 281 6.0 12.0 0.00 0.00 0.00 36 1004.4
20200926224623 55 315 6.0 17.0 0.00 0.00 0.00 35 1004.2
20200926223123 55 329 4.0 14.0 0.00 0.00 0.00 36 1004.2
20200926221607 55 306 7.0 11.0 0.00 0.00 0.00 35 1004.0
20200926214557 55 310 1.0 6.0 0.00 0.00 0.00 35 1003.7
20200926213113 56 321 4.0 11.0 0.00 0.00 0.00 34 1003.6
20200926211656 56 326 0.0 8.0 0.00 0.00 0.00 33 1003.3
20200926210104 56 317 4.0 11.0 0.00 0.00 0.00 32 1003.3
20200926204646 57 315 1.0 9.0 0.00 0.00 0.00 32 1003.1
20200926203035 57 314 2.0 11.0 0.00 0.00 0.00 31 1002.9
20200926201532 57 305 5.0 15.0 0.00 0.00 0.00 30 1002.8
20200926200037 57 316 5.0 14.0 0.00 0.00 0.00 31 1002.8
20200926194605 58 316 4.0 13.0 0.00 0.00 0.00 31 1002.7
20200926193023 58 313 5.0 11.0 0.00 0.00 0.00 32 1002.6
20200926191534 58 332 4.0 17.0 0.00 0.00 0.00 32 1002.5
20200926190040 58 296 4.0 11.0 0.00 0.00 0.00 32 1002.4
20200926184520 59 309 1.0 9.0 0.00 0.00 0.00 32 1002.3
20200926183040 59 289 2.0 10.0 0.00 0.00 0.00 31 1002.2
20200926181516 59 297 1.0 8.0 0.00 0.00 0.00 31 1002.1
20200926180018 59 310 2.0 9.0 0.00 0.00 0.00 30 1001.8
20200926174638 59 301 5.0 11.0 0.00 0.00 0.00 30 1001.7
20200926173241 60 317 0.0 9.0 0.00 0.00 0.00 29 1001.5
20200926171648 60 324 2.0 8.0 0.00 0.00 0.00 27 1001.3
20200926170129 61 316 0.0 11.0 0.00 0.00 0.00 26 1001.3
20200926164645 0 0.0 0.0 0.00 0.00 0.00
20200926163125 62 267 2.0 10.0 0.00 0.00 0.00 25 1000.9
20200926161611 62 325 2.0 7.0 0.00 0.00 0.00 25 1000.8
20200926160218 62 335 0.0 5.0 0.00 0.00 0.00 24 1000.6
20200926154619 63 323 0.0 6.0 0.00 0.00 0.00 26 1000.7
20200926153133 63 348 0.0 10.0 0.00 0.00 0.00 24 1000.6
20200926151721 64 296 0.0 10.0 0.00 0.00 0.00 23 1000.8
20200926150119 65 334 0.0 5.0 0.00 0.00 0.00 23 1000.9
20200926144707 64 331 0.0 18.0 0.00 0.00 0.00 23 1000.9
20200926143143 64 303 1.0 6.0 0.00 0.00 0.00 23 1001.2
20200926141626 63 281 3.0 12.0 0.00 0.00 0.00 22 1001.3
20200926140111 63 317 0.0 9.0 0.00 0.00 0.00 23 1001.1
20200926134658 63 341 1.0 15.0 0.00 0.00 0.00 24 1001.4
20200926133229 63 315 6.0 19.0 0.00 0.00 0.00 22 1001.8
20200926131646 64 296 5.0 20.0 0.00 0.00 0.00 22 1001.6
20200926130107 63 306 2.0 16.0 0.00 0.00 0.00 22 1001.4
20200926124709 64 300 0.0 19.0 0.00 0.00 0.00 23 1001.5
20200926123115 64 308 3.0 24.0 0.00 0.00 0.00 23 1001.7
20200926121701 64 226 2.0 12.0 0.00 0.00 0.00 22 1001.6
20200926120052 63 307 2.0 12.0 0.00 0.00 0.00 22 1001.8
20200926114622 64 319 4.0 18.0 0.00 0.00 0.00 21 1002.2
20200926113205 64 199 4.0 12.0 0.00 0.00 0.00 23 1002.0
20200926111648 64 298 2.0 16.0 0.00 0.00 0.00 22 1001.8
20200926110112 63 312 7.0 19.0 0.00 0.00 0.00 22 1001.7
20200926104641 63 280 4.0 19.0 0.00 0.00 0.00 21 1001.8
20200926103132 63 329 4.0 19.0 0.00 0.00 0.00 21 1001.7
20200926101645 62 313 6.0 21.0 0.00 0.00 0.00 21 1001.7
20200926100034 62 90 4.0 20.0 0.00 0.00 0.00 21 1001.8
20200926094558 62 292 3.0 12.0 0.00 0.01 0.00 21 1001.7
20200926093103 62 302 7.0 19.0 0.00 0.01 0.00 20 1001.7
20200926091619 62 325 5.0 21.0 0.00 0.01 0.00 21 1001.8
20200926090106 62 248 1.0 14.0 0.00 0.01 0.00 22 1001.4
20200926084528 62 335 3.0 22.0 0.00 0.01 0.00 21 1001.3
20200926083039 61 11 4.0 19.0 0.00 0.01 0.00 24 1001.6